Weather Roundup
Issued by NWS Chicago, IL

Home | Current Version | Previous Version | Text Only | Print | Product List | Glossary Off
Versions: 1 2 3 4 5 6 7 8 9 10 11 12 13 14 15 16 17 18 19 20 21 22 23 24 25 26 27 28 29 30 31 32 33 34 35 36 37 38 39 40 41 42 43 44 45 46 47 48 49 50

000
NZUS59 KLOT 272003
HRRLOT

CHICAGO AREA WEATHER ROUNDUP
NATIONAL WEATHER SERVICE CHICAGO/ROMEOVILLE IL
300 PM CDT THU APR 27 2017

NOTE: "FAIR" INDICATES FEW OR NO CLOUDS BELOW 12,000 FEET WITH NO
SIGNIFICANT WEATHER AND/OR OBSTRUCTIONS TO VISIBILITY.

* THESE STATIONS ARE NOT UNDER NWS QUALITY CONTROL. THEY ALSO MAY NOT
  REPORT WEATHER SUCH AS PRECIPITATION OR FOG.

ILZ005-006-012>014-019>023-272100-
NORTHEAST ILLINOIS

CITY           SKY/WX    TMP DP  RH WIND       PRES   REMARKS
OHARE          CLOUDY    46  37  71 W20G28    29.66
MIDWAY         CLOUDY    47  39  74 SW18G29   29.68R
AURORA         CLOUDY    46  39  76 SW16G23   29.69R
LANSING*       CLOUDY    46  41  81 SW17G26   29.70R
JOLIET*        CLOUDY    48  40  74 W13       29.70R
WAUKEGAN       CLOUDY    45  38  76 SW14G20   29.63
DUPAGE AIRPORT CLOUDY    44  40  85 SW17      29.67R
WHEELING       CLOUDY    45  38  76 SW20      29.66R
KANKAKEE*      CLOUDY    48  40  73 SW14G21   29.73R
MORRIS*        CLOUDY    46  39  74 W20G26    29.70R
NORTHERLY ISL    N/A     46  37  71 S8          N/A
$$

WIZ051-052-058>065-066-070>072-272100-
SOUTHEAST WISCONSIN

CITY           SKY/WX    TMP DP  RH WIND       PRES   REMARKS
MILWAUKEE      CLOUDY    44  37  76 SW16G25   29.60R
KENOSHA*       CLOUDY    45  37  73 W21       29.62R
RACINE*        CLOUDY    43  37  79 W15G22    29.63R
WAUKESHA       CLOUDY    39  34  81 SW12      29.60
WEST BEND      CLOUDY    41  34  75 W16G23    29.58R
$$

INZ001>003-010>013-019-020-272100-
NORTHWEST INDIANA

CITY           SKY/WX    TMP DP  RH WIND       PRES   REMARKS
GARY*          CLOUDY    48  37  66 SW14G26   29.70
MICHIGAN CITY* NOT AVBL
RENSSELAER*    NOT AVBL
VALPARAISO     CLOUDY    48  39  71 SW22      29.71R
$$

LMZ740>746-272100-
SOUTHERN LAKE MICHIGAN

STATION/POSITION TIME  SKY/WX   TEMP WIND        PRES    VSBY
                                AIR  DIR/SP/G
                 (UTC)          (F)  (DEG/KT/KT) (MB)    (MI)
HARRISON CRIB    1930            46  240/ 21/ 27   N/A
BURNHAM HARBOR   2000            46  270/ 15/ 16   N/A
CALUMET HARBOR   1930            46  210/ 13/ 19 1004.3R
BURNS HARBOR     1940            47  240/ 15/ 23 1005.8R
MICHIGAN CITY    1940            46  220/ 19/ 21   N/A
$$

ABBREVIATIONS USED IN REMARKS
   TC - TEMPERATURE IN CELSIUS
  WCI - WIND CHILL INDEX
   HX - HEAT INDEX
  VSB - VISIBILITY
$$




USA.gov is the U.S. government's official web portal to all federal, state and local government web resources and services.